Regional Weather Roundup
Issued by NWS San Diego, CA

Home | Current Version | Previous Version | Text Only | Print | Product List | Glossary On
Versions: 1 2 3 4 5 6 7 8 9 10 11 12 13 14 15 16 17 18 19 20 21 22 23 24 25 26 27 28 29 30 31 32 33 34 35 36 37 38 39 40 41 42 43 44 45 46 47 48 49 50
000
ASUS46 KSGX 010610
RWRSGX

SAN DIEGO HOURLY WEATHER ROUNDUP
NATIONAL WEATHER SERVICE SAN DIEGO CA
1100 PM PDT THU JUL 31 2014

NOTE: "FAIR" INDICATES FEW OR NO CLOUDS BELOW 12,000 FEET WITH NO
SIGNIFICANT WEATHER AND/OR OBSTRUCTIONS TO VISIBILITY.

CAZ042-043-060-061-PZZ750-775-010700-

GREATER SAN DIEGO AREA

CITY           SKY/WX    TMP DP  RH WIND       PRES   REMARKS
LINDBERGH FLD  MOCLDY    71  63  75 SW5       29.95S
POINT LOMA       N/A     69  64  84 SW6         N/A
NATIONAL CITY    N/A     71  66  84 CALM      29.94F
CHULA VISTA      N/A     70  66  87 W2        29.87F
IMPERIAL BEACH MOCLDY    70  65  84 W6        29.94F
BROWN FIELD    CLEAR     68  64  87 CALM      29.94F
MIRAMAR MCAS   PTCLDY    67  62  84 SW3       29.94S
MONTGOMERY FLD PTCLDY    70  64  81 S3        29.95R

$$

NORTH SAN DIEGO COUNTY

CITY           SKY/WX    TMP DP  RH WIND       PRES   REMARKS
CAMP PENDLETON PTCLDY    69  64  84 CALM      29.93R
OCEANSIDE AP   CLOUDY    71  65  81 W3        29.92S
VISTA            N/A     69  65  85 CALM      29.91R
CARLSBAD       CLOUDY    70  64  81 S5        29.93S
DEL MAR          N/A     69  65  88 SW1       29.95S
FALLBROOK        N/A     68  68  99 CALM      29.93R
ESCONDIDO        N/A     71  65  82 CALM      29.94R
SAN MARCOS       N/A     69  64  84 CALM      29.91R
POWAY            N/A     69  64  83 CALM      29.94R
R. PENASQUITOS   N/A     69  65  89 CALM      29.94R

$$

EAST SAN DIEGO COUNTY

CITY           SKY/WX    TMP DP  RH WIND       PRES   REMARKS
RAMONA         CLEAR     68  60  75 W5        29.96S
SANTEE LAKES     N/A     69  65  87 CALM      29.93S
GILLESPIE FLD  FAIR      70  64  83 SW3       29.96S
LA MESA          N/A     69  65  89 CALM      29.87S
JAMUL            N/A     68  64  87 CALM      29.90F
DESCANSO N       N/A     70  51  51 NE3       29.76S
MT. LAGUNA OBS   N/A     71  42  34 CALM      29.80S
CAMPO            N/A     70  57  63 E3        29.98F

$$

ORANGE COUNTY AND THE LOS ANGELES BASIN

CITY           SKY/WX    TMP DP  RH WIND       PRES   REMARKS
JOHN WAYNE AP  PTCLDY    72  64  76 S6        29.92R
LAGUNA BEACH     N/A     69  66  89 S1        29.89R
LAKE FOREST FR   N/A     69  60  73 CALM      29.81R
SANTA ANA        N/A     72  65  78 CALM      29.87R
HUNTINGTON BCH   N/A     67  65  91 W3        29.94R
LOS ALAMITOS   FAIR      68  64  86 S3        29.92R
FULLERTON      CLEAR     73  59  61 SW3       29.91R
LONG BEACH     CLEAR     70  62  76 NW5       29.91R
L.A. AP        PTCLDY    67  62  84 SW3       29.92R
L.A. DOWNTOWN  CLEAR     68  61  78 CALM      29.92R

$$

THE INLAND EMPIRE

CITY           SKY/WX    TMP DP  RH WIND       PRES   REMARKS
CORONA         CLEAR     73  62  68 NW8       29.92R
CHINO          CLEAR     73  61  65 W7        29.93R
ONTARIO        PTCLDY    77  59  53 W9        29.93R
RIVERSIDE AP   CLEAR     77  61  57 W6        29.92R
RIV CYN CREST    N/A     79  67  67 W1        29.89R
MORENO VALLEY    N/A     79  64  59 CALM        N/A
MARCH ARB      CLEAR     77  59  53 NW3       29.95R
HORSETHIEF CYN   N/A     78  60  53 CALM      29.90R
PERRIS           N/A     78  62  57 CALM      29.92R
MENIFEE          N/A     78  64  62 S5        30.00R
HEMET EAST       N/A     79  55  42 CALM      29.87S
FRENCH VALLEY  FAIR      73  61  64 S7        29.96R
TEMECULA         N/A     74  64  71 S2        29.90R

$$

SAN BERNARDINO AND RIVERSIDE COUNTY MOUNTAINS

CITY           SKY/WX    TMP DP  RH WIND       PRES   REMARKS
BIG BEAR AP    CLEAR     59  39  47 CALM      30.33S
BIG BEAR SHEA    N/A     60  36  40 CALM      29.93
ANGELUS OAKS     N/A     67  42  41 MISG      29.76R
PINE COVE        N/A     69  44  40 NW3       29.86S

$$

SOUTHERN DESERT INCLUDING THE COACHELLA VALLEY

CITY           SKY/WX    TMP DP  RH WIND       PRES   REMARKS
PALM SPRINGS   CLEAR    101  48  16 NW6       29.81R HX  97
THOUSAND PALMS   N/A     97  51  20 NW6       29.75R
THERMAL        PTCLDY    94  70  45 W5        29.74R HX 100
BLYTHE           N/A    N/A N/A N/A MISG      29.78R
IMPERIAL AP    MOCLDY    92  76  59 SE13      29.74R HX 104
EL CENTRO NAS  MOCLDY    94  69  44 SE8       29.74R HX  99
YUMA AZ        MOCLDY    95  69  42 S10       29.77S HX 100

$$

UPPER DESERT

CITY           SKY/WX    TMP DP  RH WIND       PRES   REMARKS
VICTORVILLE AP CLEAR     84  46  26 SW8       30.01R
HESPERIA         N/A     82  47  29 CALM      29.93S
APPLE VALLEY     N/A     84  47  27 CALM      30.06S
GRAY BUTTE AP  NOT AVBL
PALMDALE       CLEAR     85  44  23 SW8       29.99R
LANCASTER      CLEAR     85  46  25 W12       29.97S
EDWARDS AFB    CLEAR     84  47  27 SW9       29.94S
DAGGETT        CLEAR     95  43  16 SW15      29.89S
29 PALMS N     PTCLDY    93  47  20 VRB6      29.96R
NEEDLES        PTCLDY   102  57  22 SW8       29.78R HX 101

$$

REGIONAL REPORTS

CITY           SKY/WX    TMP DP  RH WIND       PRES   REMARKS
SANTA BARBARA  CLEAR     67  61  81 E6        29.87S
SANDBERG       CLEAR     82  42  24 NW10G21   30.16R
MT. WILSON       N/A     72  34  25 MISG        N/A
LAS VEGAS NV   MOCLDY    97  43  15 S8        29.83S
PHOENIX AZ     CLOUDY    96  54  24 NW18G29   29.87R
TIJUANA        CLEAR     68  63  83 NW6       29.96F
ENSENADA NW      N/A     69  32  25 W3        29.93R

$$

OFFSHORE ISLANDS

CITY           SKY/WX    TMP DP  RH WIND       PRES   REMARKS
CATALINA ARPT  CLEAR     69  55  60 CALM      29.97R
SAN NICOLAS IS CLEAR    N/A N/A N/A W15       29.90S

$$

MARINE AND OFFSHORE BUOY REPORTS

STATION/POSITION SKY/WX   TEMP    WIND        PRES    SWELL
                          AIR SEA DIR/SP/G            HT/PER/DIR
                          (F)     (DEG/KT/KT) (MB)    (FT/S/D)
TANNER BANKS               65 68  300/ 17/ 21 1013.5S   2/320/ 9
S CLEMENTE BASIN           67 71  290/  8/ 10 1013.7R   5/290/ 7
SAN NICOLAS IS.               66                N/A     2/200/13
SO. S. ROSA ISLA           64 66  300/ 19/ 23 1012.5R   2/ 8
W. S. BARBARA CH           61 60  310/ 17/ 21 1012.2R   2/320/ 8
M. S. BARBARA CH           63 65  270/ 16/ 19 1011.5R
S. MONICA BASIN            65 68  340/  6/  8 1012.0F   5/260/ 6
S PEDRO CHANNEL               69                N/A     2/180/12
DANA POINT                    71                N/A     2/180/12
CMP PENDLETON NS              71                N/A     2/220/17
OCEANSIDE OFFSHR              73                N/A     2/180/13
TORREY PINES OTR              73                N/A     2/210/13
LA JOLLA 1                 70 74  200/  5/  8 1013.8F
MISSION BAY BUOY              72                N/A     2/210/13
SAN DIEGO BAY                 76              1014.2S
POINT LOMA SOUTH              73                N/A     2/210/13

$$




USA.gov is the U.S. government's official web portal to all federal, state and local government web resources and services.